Погода в Жархане

Россия / Республика Саха (Якутия)     63°31′12″N   118°49′19″E
темп.,
°C
ветер,
м/с
пор.,
м/с
влажн.,
%
обл.,
%
осадки,
мм/ч
давл.,
гПа
погр.,
м
27 февраля, сб
сб2700:00−32всв259884 0.0 1027101
03:00−33всв259865 0.0 102688
06:00−33всв239988 0.0 102651
09:00−32всв259894 0.0 1026162
12:00−28всв1294100 0.0 1025267
15:00−26с2295100 0.1 1024373
18:00−26ссз1199100 0.5 102580
21:00−26сз2499100 0.9 1025169
28 февраля, вс
вс2800:00−27зсз2698100 0.3 1025337
03:00−28зсз2698100 0.4 1025268
06:00−28з2697100 0.1 1026270
09:00−30зюз3693100 0.1 1027292
12:00−29зюз3792100 0.0 1028397
15:00−27зюз3790100 0.0 1028507
18:00−27зюз2693100 0.0 1029164
21:00−30зюз249595 0.0 103090
1 марта, пн
пн100:00−33зюз239575 0.0 103134
03:00−35зюз239677 0.0 103124
06:00−36зюз239678 0.0 103141
09:00−37зюз229776 0.0 103137
12:00−31зюз249461 0.0 1030296
15:00−28зюз249177 0.0 1029453
18:00−30юз129699 0.0 102919
21:00−34юз119986 0.0 102919
2 марта, вт
вт200:00−36зюз1110058 0.0 102919
03:00−37з0010069 0.0 102819
06:00−38сз0010055 0.0 102819
09:00−38ссз119951 0.0 102818
12:00−31ссв129153 0.0 1027266
15:00−28ссв128874 0.0 1027387
18:00−32св119595 0.0 102719
21:00−35ссв129677 0.0 102819
3 марта, ср
ср300:00−35ссв129595 0.0 102819
03:00−37с119797 0.0 102819
06:00−39с129870 0.0 102818
09:00−39ссз119872 0.0 102918
12:00−32сз129299 0.0 1028306
15:00−30сз239299 0.0 1027507
18:00−30сз2595100 0.1 1026489
21:00−31зсз2698100 0.1 1026281